Overview Statistics Trail Chart Weather Telemetry Raw packets
 

This is the latest recevied weather packets stored in our database for station/object KO4YAW. If no packets are shown the sender has not sent any weather packets the latest 10 day(s).

<< 27 28 29 30 31 32 33 >>
Time Temp. Humidity Pressure Rain* Wind** Luminosity Snow
1788027485 30.56° C 25% 1019.3 hPa 0 mm - 415 W/m² -
1788026585 30° C 25% 1019.5 hPa 0 mm - 513 W/m² -
1788025685 30.56° C 25% 1019.6 hPa 0 mm - 311 W/m² -
1788024785 30° C 25% 1019.8 hPa 0 mm - 211 W/m² -
1788023884 30° C 26% 1019.9 hPa 0 mm - 246 W/m² -
1788022984 30° C 27% 1019.9 hPa 0 mm - 651 W/m² -
1788022084 29.44° C 27% 1019.9 hPa 0 mm - 524 W/m² -
1788021184 28.89° C 30% 1020.1 hPa 0 mm - 478 W/m² -
1788020284 27.78° C 30% 1019.9 hPa 0 mm - 712 W/m² -
1788019384 27.78° C 34% 1019.9 hPa 0 mm - 192 W/m² -
1788018484 26.67° C 35% 1019.9 hPa 0 mm - 81 W/m² -
1788017584 26.11° C 36% 1019.9 hPa 0 mm - 117 W/m² -
1788016684 25° C 37% 1019.8 hPa 0 mm - 151 W/m² -
1788015784 24.44° C 38% 1019.8 hPa 0 mm - 73 W/m² -
1788014884 23.33° C 40% 1019.8 hPa 0 mm - 54 W/m² -
1788013984 22.22° C 43% 1020.1 hPa 0 mm - 47 W/m² -
1788013084 21.67° C 45% 1020.2 hPa 0 mm - 49 W/m² -
1788012184 20.56° C 47% 1020.2 hPa 0 mm - 47 W/m² -
1788011284 20° C 48% 1020.3 hPa 0 mm - 50 W/m² -
1788010384 20° C 50% 1020.4 hPa 0 mm - 39 W/m² -
1788009484 20° C 47% 1020.2 hPa 0 mm - 38 W/m² -
1788008584 18.89° C 50% 1020.2 hPa 0 mm - 32 W/m² -
1788007684 18.33° C 53% 1019.8 hPa 0 mm - 17 W/m² -
1788006784 17.78° C 57% 1020.1 hPa 0 mm - 5 W/m² -
1788005884 18.33° C 55% 1019.8 hPa 0 mm - 1 W/m² -

* Rain since midnight (hover to see other rain measurements)
** Current wind speed in m/s (hover to see current wind gust speed)